This demonstration page uses our WeatherBlox Daily Observations layout. Learn more.

39.51506, -84.39828

Hourly Observations for November 13, 2018

Temp ( °F °C ) Dew Point ( °F °C ) Humidity (%) Winds ( mph kmh ) Pressure ( in mb ) Visibility ( mi km ) Precip ( " mm )
12:15 am 00:15 Cloudy with Light Rain 34 1.2 33 0.3 94 94 NNE 3 6 30.24 1024 4 6.43736 0 0
12:35 am 00:35 Cloudy with Light Rain 34 1.2 33 0.4 94 94 Calm 30.24 1024 5 8.0467 0 0
12:55 am 00:55 Cloudy with Light Rain 34 1.3 33 0.5 94 94 Calm 30.24 1024 5 8.0467 0 0
1:15 am 01:15 Cloudy 35 1.4 33 0.6 94 94 Calm 30.24 1024 7 11.26538 0 0
1:35 am 01:35 Cloudy 35 1.5 33 0.6 94 94 N 3 6 30.24 1024 7 11.26538 0 0
1:55 am 01:55 Cloudy 35 1.6 33 0.6 93 93 Calm 30.21 1023 7 11.26538 0 0
2:15 am 02:15 Cloudy 35 1.6 33 0.6 93 93 Calm 30.24 1024 7 11.26538 0 0
2:35 am 02:35 Cloudy 35 1.6 33 0.6 93 93 Calm 30.21 1023 7 11.26538 0 0
2:55 am 02:55 Cloudy 35 1.8 33 0.6 92 92 Calm 30.24 1024 7 11.26538 0 0
3:15 am 03:15 Cloudy 35 1.8 33 0.3 90 90 Calm 30.24 1024 10 16.0934 0 0
3:35 am 03:35 Cloudy 35 1.8 33 0.3 90 90 N 3 6 30.21 1023 10 16.0934 0 0
3:55 am 03:55 Cloudy 35 1.8 33 0.3 90 90 Calm 30.21 1023 7 11.26538 0 0
4:15 am 04:15 Cloudy 35 1.8 32 0.1 89 89 NNW 3 6 30.24 1024 7 11.26538 0 0
4:35 am 04:35 Cloudy with Light Rain 35 1.9 32 0.1 88 88 NNW 6 9 30.21 1023 7 11.26538 0 0
4:55 am 04:55 Cloudy with Light Rain 35 1.9 33 0.4 90 90 NNW 6 9 30.21 1023 7 11.26538 0 0
5:15 am 05:15 Cloudy with Light Rain 35 1.8 33 0.5 91 91 NNW 3 6 30.24 1024 5 8.0467 0 0
5:35 am 05:35 Cloudy with Light Rain 35 1.8 33 0.7 93 93 NW 3 6 30.24 1024 5 8.0467 0 0
5:55 am 05:55 Cloudy with Light Rain 35 1.8 33 0.6 92 92 Calm 30.24 1024 5 8.0467 0 0
6:15 am 06:15 Cloudy with Light Rain 35 1.9 34 0.9 93 93 Calm 30.27 1025 5 8.0467 0 0
6:35 am 06:35 Cloudy with Light Rain 36 2 33 0.8 92 92 NNW 6 9 30.24 1024 5 8.0467 0 0
6:55 am 06:55 Cloudy with Light Rain 35 1.9 33 0.8 93 93 NNW 8 13 30.24 1024 5 8.0467 0 0
7:15 am 07:15 Cloudy with Mist and Fog 35 1.9 34 0.9 93 93 N 6 9 30.27 1025 5 8.0467 0 0
7:35 am 07:35 Cloudy with Mist and Fog 35 1.9 34 1 94 94 N 8 13 30.24 1024 3 4.82802 0 0
7:55 am 07:55 Cloudy with Mist and Fog 35 1.9 33 0.8 93 93 NNW 7 11 30.27 1025 3.5 5.63269 0 0
8:15 am 08:15 Cloudy with Mist and Fog 36 2 34 0.9 93 93 NNW 7 11 30.27 1025 3.5 5.63269 0 0
8:35 am 08:35 Cloudy with Mist and Fog 36 2.1 33 0.8 91 91 NNW 9 15 30.3 1026 4 6.43736 0 0
8:55 am 08:55 Cloudy with Mist and Fog 36 2.1 33 0.7 91 91 NNW 8 13 30.3 1026 4 6.43736 0 0
9:15 am 09:15 Cloudy with Mist and Fog 35 1.7 33 0.6 93 93 NW 10 17 30.3 1026 2.5 4.02335 0 0
9:35 am 09:35 Cloudy with Mist and Fog 35 1.6 33 0.5 93 93 NNW 7 11 30.3 1026 3.5 5.63269 0 0
9:55 am 09:55 Cloudy with Mist and Fog 34 1.2 32 0.2 93 93 NNW 9 15 30.33 1027 3.5 5.63269 0 0
10:15 am 10:15 Cloudy 35 1.5 31 -0.5 87 87 N 9 15 30.33 1027 7 11.26538 0 0
10:35 am 10:35 Cloudy 35 1.5 31 -0.6 86 86 NW 12 19 30.33 1027 7 11.26538 0 0
10:55 am 10:55 Cloudy 35 1.6 30 -1.1 82 82 N 14 22 30.33 1027 10 16.0934 0 0
11:15 am 11:15 Cloudy 36 2.2 30 -1 80 80 N 8 13 30.33 1027 10 16.0934 0 0
11:30 am 11:30 Mostly Cloudy 36 2.4 29 -1.8 74 74 N 12 19 30.36 1028 10 16.0934 0 0
11:55 am 11:55 Cloudy 36 2.4 27 -2.9 68 68 NNW 7 11 30.36 1028 10 16.0934 0 0
12:15 pm 12:15 Cloudy 37 2.7 26 -3.1 66 66 N 12 19 30.36 1028 10 16.0934 0 0
12:35 pm 12:35 Cloudy 38 3.1 26 -3.1 64 64 NNW 5 7 30.36 1028 10 16.0934 0 0
12:55 pm 12:55 Cloudy 37 2.9 26 -3.6 63 63 NNW 8 13 30.33 1027 10 16.0934 0 0
1:15 pm 13:15 Cloudy 37 3 25 -3.7 62 62 NW 10 17 30.33 1027 10 16.0934 0 0
1:30 pm 13:30 Cloudy 37 3 26 -3.4 63 63 NNW 8 13 30.33 1027 10 16.0934 0 0
1:55 pm 13:55 Cloudy 37 3 25 -3.9 61 61 NNW 9 15 30.33 1027 10 16.0934 0 0
2:15 pm 14:15 Cloudy 38 3.2 25 -3.9 60 60 NW 9 15 30.33 1027 10 16.0934 0 0
2:35 pm 14:35 Cloudy 38 3.3 24 -4.4 57 57 NNW 8 13 30.33 1027 10 16.0934 0 0
2:55 pm 14:55 Cloudy 38 3.2 24 -4.6 57 57 NW 9 15 30.36 1028 10 16.0934 0 0
3:15 pm 15:15 Cloudy 38 3.1 23 -4.8 57 57 NW 12 19 30.36 1028 10 16.0934 0 0
3:35 pm 15:35 Cloudy 37 2.8 24 -4.4 59 59 NNW 13 20 30.36 1028 10 16.0934 0 0
3:55 pm 15:55 Cloudy 36 2.3 25 -3.9 64 64 NW 10 17 30.39 1029 10 16.0934 0 0
4:15 pm 16:15 Cloudy 36 2 24 -4.6 62 62 NNW 9 15 30.39 1029 10 16.0934 0 0
4:35 pm 16:35 Cloudy 36 2 22 -5.4 58 58 NNW 7 11 30.39 1029 10 16.0934 0 0
4:55 pm 16:55 Cloudy 35 1.7 24 -4.2 65 65 WNW 7 11 30.39 1029 10 16.0934 0 0
5:15 pm 17:15 Cloudy 34 1.3 23 -4.9 64 64 NW 8 13 30.39 1029 10 16.0934 0 0
5:35 pm 17:35 Cloudy 34 1.1 24 -4.5 67 67 WNW 9 15 30.42 1030 10 16.0934 0 0
5:55 pm 17:55 Mostly Cloudy 33 0.5 23 -4.8 68 68 WNW 10 17 30.42 1030 10 16.0934 0 0
6:15 pm 18:15 Partly Cloudy 32 0 23 -4.9 70 70 WNW 8 13 30.42 1030 10 16.0934 0 0
6:35 pm 18:35 Clear 31 -0.3 23 -4.9 71 71 NW 8 13 30.42 1030 10 16.0934 0 0
6:55 pm 18:55 Clear 31 -0.6 23 -5 72 72 WNW 7 11 30.42 1030 10 16.0934 0 0
7:15 pm 19:15 Clear 30 -0.9 23 -5 74 74 WNW 6 9 30.45 1031 10 16.0934 0 0
7:35 pm 19:35 Clear 30 -0.9 23 -5.1 73 73 WNW 6 9 30.45 1031 10 16.0934 0 0
7:55 pm 19:55 Clear 30 -1 23 -5.1 74 74 WNW 6 9 30.45 1031 10 16.0934 0 0
8:15 pm 20:15 Clear 30 -1 23 -5.2 73 73 NW 6 9 30.45 1031 10 16.0934 0 0
8:35 pm 20:35 Clear 30 -1.1 22 -5.3 73 73 WNW 6 9 30.45 1031 10 16.0934 0 0
8:55 pm 20:55 Clear 29 -1.4 22 -5.3 75 75 WNW 7 11 30.48 1032 10 16.0934 0 0
9:15 pm 21:15 Clear 29 -1.6 23 -5.2 77 77 NW 6 9 30.48 1032 10 16.0934 0 0
9:35 pm 21:35 Clear 29 -1.5 22 -5.3 76 76 WNW 9 15 30.48 1032 10 16.0934 0 0
9:55 pm 21:55 Clear 29 -1.9 22 -5.3 78 78 WNW 7 11 30.48 1032 10 16.0934 0 0
10:15 pm 22:15 Clear 28 -2.1 22 -5.5 78 78 WNW 6 9 30.48 1032 10 16.0934 0 0
10:35 pm 22:35 Clear 28 -2.5 22 -5.6 80 80 WNW 6 9 30.5 1033 10 16.0934 0 0
10:55 pm 22:55 Clear 27 -2.9 22 -5.7 81 81 WNW 6 9 30.5 1033 10 16.0934 0 0
11:15 pm 23:15 Clear 27 -3 22 -5.7 82 82 NW 7 11 30.53 1034 10 16.0934 0 0
11:35 pm 23:35 Clear 27 -2.9 22 -5.6 82 82 WNW 6 9 30.5 1033 10 16.0934 0 0
11:55 pm 23:55 Clear 26 -3.1 22 -5.6 83 83 NW 8 13 30.53 1034 10 16.0934 0 0

Powered by AerisWeather